Powrót do katalogu

STARLINK-37838

AktywnyŁącznośćSSO
NORAD 69654·PAYLOAD·🇺🇸 United States

Wystrzelony Jun 21, 2026 z Vandenberg Space Force Base

Loading…

Następne Przeloty (najbliższe 24 godziny)

TLE

ŚwieżeSource: CelesTrak SupGP

Epoka: Sep 14, 2026, 23:06 UTC

1 69654C 26143F   26257.96298611  .00033703  00000+0  10464-2 0  2579
2 69654  97.2843 301.2772 0000959  94.1669  25.0150 15.33418303    10

Śledź STARLINK-37838 w czasie rzeczywistym z AllMySat

Download on the App Store